Location: Knowlton
(51.2333°N, 1.2667°E)
Time: 04:54:49
(UTC+00:00)

CZ-2C R/B - Pass Details

Date: 18 April 2021
Orbit: 639 x 705 km, 98.3° (Epoch: 06 May)

Event Time Altitude Azimuth Distance (km) Brightness Sun altitude
Rises 21:18:15 0° 11° (NNE) 2,977 7.6 -19.1°
Reaches altitude 10° 21:20:30 10° 8° (N) 2,055 6.8 -19.3°
Maximum altitude 21:24:53 58° 290° (WNW) 752 4.2 -19.7°
Enters shadow 21:28:54 12° 213° (SSW) 1,905 5.9 -20.1°
